Lawton, OK

3:56 AM CDT on August 28, 2016 (GMT -0500)
Post Army Air Field

Weather History for KFSI - May, 2013

Change the Weather History Date:

Friday, May 31, 2013

  Actual Average Record
Temperature  
Mean Temperature 83 °F -  
Max Temperature 94 °F 86 °F 104 °F (1985)
Min Temperature 73 °F 62 °F 46 °F (1983)
Cooling Degree Days 18    
Growing Degree Days 33 (Base 50)    
Moisture  
Dew Point 72 °F    
Average Humidity 68    
Maximum Humidity 85    
Minimum Humidity 48    
Precipitation  
Precipitation 0.02 in - - ()
Sea Level Pressure  
Sea Level Pressure 29.63 in    
Wind  
Wind Speed 17 mph (South)    
Max Wind Speed 24 mph    
Max Gust Speed 41 mph    
Visibility 10 miles    
Events Rain , Thunderstorm    
Averages and records for this station are not official NWS values.
T = Trace of Precipitation, MM = Missing Value Source: NWS Daily Summary

Daily Weather History Graph

Daily Weather History Graph

Search for Another Location

Airport or City:

Trip Planner

Search our weather history database for the weather conditions in past years. The results will help you decide how hot, cold, wet, or windy it might be!

Date:

Astronomy

May. 31, 2013 Rise Set
Actual Time 6:22 AM CDT 8:41 PM CDT
Civil Twilight 5:53 AM CDT 9:10 PM CDT
Nautical Twilight 5:17 AM CDT 9:45 PM CDT
Astronomical Twilight 4:38 AM CDT 10:24 PM CDT
Moon 1:28 AM CDT (5/31) 1:25 PM CDT (5/31)
Length of Visible Light 15h 16m
Length of Day
14h 19m
Waning Gibbous, 51% of the Moon is Illuminated
May 31
Waning Gibbous
May 31
Last Quarter
Jun 8
New
Jun 16
First Quarter
Jun 23
Full

Hourly Weather History & Observations

Time (CDT) Temp. Heat Index Dew Point Humidity Pressure Visibility Wind Dir Wind Speed Gust Speed Precip Events Conditions
12:58 AM 77.9 °F - 68.7 °F 73% 29.63 in 10.0 mi South 17.3 mph 21.9 mph N/A   Clear
1:58 AM 77.7 °F - 68.9 °F 74% 29.62 in 10.0 mi South 18.4 mph 24.2 mph N/A   Clear
2:58 AM 77.0 °F - 68.5 °F 75% 29.62 in 10.0 mi South 15.0 mph - N/A   Clear
3:58 AM 76.6 °F - 68.4 °F 75% 29.63 in 10.0 mi South 13.8 mph 20.7 mph N/A   Clear
4:58 AM 75.9 °F - 68.7 °F 78% 29.65 in 10.0 mi SSW 10.4 mph - N/A   Clear
5:58 AM 74.5 °F - 68.9 °F 83% 29.67 in 10.0 mi South 12.7 mph - N/A   Clear
6:58 AM 73.9 °F - 69.3 °F 85% 29.70 in 10.0 mi South 12.7 mph - N/A   Clear
7:58 AM 76.5 °F - 71.2 °F 84% 29.72 in 10.0 mi South 15.0 mph - N/A   Clear
8:58 AM 78.4 °F - 71.6 °F 79% 29.72 in 10.0 mi South 17.3 mph 28.8 mph N/A   Scattered Clouds
9:08 AM 78.8 °F - 71.6 °F 78% 29.74 in 10.0 mi South 19.6 mph 26.5 mph N/A   Mostly Cloudy
9:13 AM 78.8 °F - 71.6 °F 78% 29.74 in 10.0 mi South 19.6 mph 27.6 mph N/A   Mostly Cloudy
9:18 AM 78.8 °F - 71.6 °F 78% 29.74 in 10.0 mi South 18.4 mph 27.6 mph N/A   Mostly Cloudy
9:23 AM 78.8 °F - 71.6 °F 78% 29.74 in 10.0 mi South 16.1 mph 26.5 mph N/A   Mostly Cloudy
9:58 AM 81.1 °F 85.6 °F 72.0 °F 74% 29.72 in 10.0 mi South 19.6 mph 28.8 mph N/A   Overcast
10:58 AM 83.8 °F 89.2 °F 72.0 °F 67% 29.70 in 10.0 mi South 17.3 mph 24.2 mph N/A   Mostly Cloudy
11:58 AM 87.3 °F 94.5 °F 72.7 °F 62% 29.69 in 10.0 mi South 21.9 mph 25.3 mph N/A   Mostly Cloudy
12:58 PM 90.7 °F 99.0 °F 73.0 °F 56% 29.68 in 10.0 mi SSW 16.1 mph 21.9 mph N/A   Scattered Clouds
1:40 PM 91.4 °F 98.4 °F 71.6 °F 52% 29.69 in 10.0 mi SSW 13.8 mph 34.5 mph N/A   Scattered Clouds
1:51 PM 91.4 °F 100.1 °F 73.4 °F 55% 29.69 in 10.0 mi South 13.8 mph 26.5 mph N/A   Partly Cloudy
1:52 PM 91.4 °F 100.1 °F 73.4 °F 55% 29.68 in 10.0 mi SSE 13.8 mph 26.5 mph N/A   Partly Cloudy
1:58 PM 91.8 °F 99.7 °F 72.5 °F 53% 29.65 in 10.0 mi SSW 16.1 mph 24.2 mph N/A   Partly Cloudy
2:58 PM 93.6 °F 100.7 °F 71.4 °F 48% 29.63 in 10.0 mi South 17.3 mph 27.6 mph N/A   Partly Cloudy
3:58 PM 93.0 °F 100.7 °F 71.6 °F 50% 29.60 in 10.0 mi SSE 20.7 mph 28.8 mph N/A   Clear
4:58 PM 92.8 °F 100.9 °F 72.3 °F 51% 29.57 in 10.0 mi SSE 21.9 mph 32.2 mph N/A   Partly Cloudy
5:36 PM 91.4 °F 100.1 °F 73.4 °F 55% 29.56 in 10.0 mi SSE 18.4 mph 32.2 mph N/A   Light Drizzle
5:40 PM 91.4 °F 98.4 °F 71.6 °F 52% 29.55 in 10.0 mi SSE 24.2 mph 27.6 mph N/A   Partly Cloudy
5:58 PM 91.9 °F 100.7 °F 73.0 °F 54% 29.50 in 10.0 mi SSE 23.0 mph 34.5 mph 0.00 in Thunderstorm Partly Cloudy
6:05 PM 89.6 °F 98.2 °F 73.4 °F 59% 29.55 in 6.0 mi South 24.2 mph 33.4 mph N/A Rain , Thunderstorm Light Thunderstorms and Rain
6:19 PM 82.4 °F 89.5 °F 75.2 °F 79% 29.53 in 9.0 mi SSE 17.3 mph 41.4 mph N/A Thunderstorm Thunderstorm
6:20 PM 82.4 °F 89.5 °F 75.2 °F 79% 29.53 in 9.0 mi South 16.1 mph 41.4 mph N/A   Scattered Clouds
6:58 PM 86.0 °F 93.8 °F 73.8 °F 67% 29.48 in 10.0 mi SSE 23.0 mph 36.8 mph 0.02 in   Clear
7:58 PM 87.4 °F 94.4 °F 72.5 °F 61% 29.49 in 10.0 mi South 19.6 mph 33.4 mph N/A   Clear
8:58 PM 85.8 °F 91.8 °F 72.0 °F 63% 29.52 in 10.0 mi SSE 20.7 mph 31.1 mph N/A   Clear
9:58 PM 83.1 °F 88.4 °F 72.1 °F 69% 29.56 in 10.0 mi SSE 11.5 mph - N/A   Clear
10:58 PM 78.8 °F - 71.1 °F 77% 29.62 in 10.0 mi ENE 15.0 mph - N/A   Clear
11:58 PM 76.6 °F - 70.2 °F 80% 29.60 in 10.0 mi SE 16.1 mph - N/A   Clear